Hourly Data Report for September 13, 2017

All times are specified in Local Standard Time (LST). Add 1 hour to adjust for Daylight Saving Time where and when it is observed.

EDMUNDSTON
NEW BRUNSWICK

47°25'00.000" N
68°19'28.040" W
154.20 m
8101303
71590
ERM

Download Data

Hourly Data (September 2017)
Hourly Data Report for September 13, 2017
Temp Definition
°C
Dew Point Temp Definition
°C
Rel Hum Definition
%
Wind Dir Definition
10's deg

Wind Spd Definition
km/h
Visibility Definition
km
Stn Press Definition
kPa
Hmdx Definition


Wind Chill Definition


Weather Definition


TIME
00:00 7.7 6.9 95   0   98.89     LegendNANA
01:00 6.8 6.1 95 34 1   98.91     LegendNANA
02:00 6.4 5.7 95 27 2   98.89     LegendNANA
03:00 5.8 5.1 96   0   98.89     LegendNANA
04:00 5.2 4.6 96   0   98.89     LegendNANA
05:00 5.0 4.4 96   0   98.92     LegendNANA
06:00 4.5 3.9 96 0 1   98.98     LegendNANA
07:00 5.4 4.8 96 0 1   99.01     LegendNANA
08:00 9.0 8.5 96   0   99.00     LegendNANA
09:00 13.9 11.5 86   0   98.99     LegendNANA
10:00 19.4 12.7 65 13 6   98.95     LegendNANA
11:00 23.1 13.6 55 20 5   98.91 26   LegendNANA
12:00 24.7 13.5 50 19 9   98.87 28   LegendNANA
13:00 25.7 12.7 44 20 7   98.79 28   LegendNANA
14:00 26.0 11.6 41 22 14   98.72 28   LegendNANA
15:00 26.7 11.9 40 24 13   98.64 29   LegendNANA
16:00 26.4 10.7 37 25 9   98.62 28   LegendNANA
17:00 25.2 10.6 40 24 14   98.61 27   LegendNANA
18:00 23.6 11.2 46 26 6   98.63 25   LegendNANA
19:00 19.3 11.7 61 1 4   98.67     LegendNANA
20:00 16.0 12.0 77 13 2   98.74     LegendNANA
21:00 14.8 11.7 82 36 5   98.74     LegendNANA
22:00 13.5 11.0 85 12 4   98.76     LegendNANA
23:00 12.1 10.3 89 5 2   98.76     LegendNANA

Notes on Data Quality.

Legend

  • E = Estimated
  • M = Missing
  • NA = Not Available
  • ‡ = Partner data that is not subject to review by the National Climate Archives
Date modified: